Temp
-5 -6 -6 -7 -6 -6 -6 -6 -6 -6 -6 -6 -6 -6 -6 -6 -5 -6 -5 -5 -5 -5 -5 -5 -6 -6 -6 -6 -5 -5 -6 -6 -5 -6 -6 -5 -5 -5 -5 -6 -6 -6 -6
-6 -6 -6 -6 -6 -6 -6 -6 -6 -6 -6 -6 -6 -6 -6 -6 -6 -6 -6 -5 -5 -5 -5 -5 -5 -6 -6 -6 -6 -5 -5 -6 -5 -6 -6 -5 -5 -5 -5 -6 -6 -6 -6
-5 -6 -6 -6 -6 -6 -6 -6 -6 -6 -6 -6 -6 -6 -6 -6 -6 -6 -6 -6 -5 -5 -5 -5 -5 -5 -6 -6 -6 -6 -5 -6 -6 -6 -6 -6 -6 -5 -5 -6 -6 -6 -6
-6 -6 -6 -6 -6 -6 -6 -7 -7 -7 -7 -7 -7 -7 -6 -6 -6 -6 -7 -6 -6 -6 -5 -6 -5 -5 -6 -6 -6 -6 -6 -6 -6 -6 -6 -6 -6 -6 -6 -6 -6 -6 -6
-6 -6 -6 -6 -6 -6 -6 -7 -7 -7 -7 -7 -7 -7 -6 -7 -7 -6 -6 -7 -6 -6 -6 -6 -6 -6 -6 -6 -6 -6 -6 -6 -6 -6 -6 -6 -6 -6 -6 -6 -6 -6 -6
-6 -6 -6 -6 -7 -6 -7 -7 -7 -7 -7 -7 -7 -8 -7 -7 -7 -7 -7 -7 -7 -6 -6 -6 -6 -6 -6 -6 -6 -6 -6 -6 -6 -6 -6 -6 -6 -6 -6 -6 -6 -6 -6
-7 -7 -7 -7 -7 -7 -7 -7 -7 -7 -7 -8 -8 -8 -8 -8 -8 -7 -7 -7 -7 -7 -6 -6 -6 -6 -6 -6 -6 -6 -6 -6 -6 -6 -6 -6 -6 -6 -6 -6 -6 -6 -6
-7 -7 -7 -7 -7 -7 -7 -7 -7 -7 -8 -8 -8 -8 -8 -8 -8 -8 -7 -7 -7 -7 -6 -7 -7 -6 -6 -6 -6 -6 -6 -6 -6 -6 -6 -7 -6 -6 -6 -6 -6 -6 -6
-7 -7 -7 -7 -7 -7 -7 -7 -7 -7 -7 -8 -8 -8 -8 -8 -8 -8 -7 -7 -7 -7 -7 -7 -7 -7 -6 -6 -6 -6 -6 -6 -6 -6 -7 -7 -7 -7 -7 -7 -7 -7 -7
-7 -7 -7 -7 -7 -7 -7 -7 -7 -7 -7 -8 -8 -8 -8 -8 -8 -8 -8 -7 -7 -7 -7 -7 -7 -7 -7 -6 -6 -6 -7 -6 -7 -7 -7 -7 -7 -7 -7 -7 -7 -7 -7
-7 -7 -7 -7 -7 -7 -7 -7 -8 -7 -8 -8 -8 -8 -8 -9 -8 -8 -8 -8 -7 -7 -8 -7 -8 -7 -7 -7 -6 -6 -7 -7 -7 -7 -7 -7 -7 -7 -7 -7 -7 -7 -7
-7 -7 -7 -7 -7 -7 -7 -7 -8 -8 -8 -8 -8 -9 -8 -9 -9 -9 -9 -8 -7 -7 -7 -8 -8 -7 -7 -7 -7 -7 -7 -7 -7 -8 -7 -7 -7 -7 -7 -7 -7 -7 -7
-7 -7 -7 -7 -7 -7 -7 -7 -8 -8 -8 -9 -8 -8 -9 -9 -8 -8 -8 -8 -7 -8 -7 -7 -8 -8 -7 -8 -7 -7 -7 -7 -7 -7 -7 -7 -7 -7 -7 -7 -7 -7 -7
-7 -7 -7 -7 -7 -7 -8 -8 -8 -8 -8 -8 -8 -8 -8 -9 -9 -8 -8 -8 -8 -8 -8 -7 -8 -8 -8 -7 -7 -7 -7 -7 -7 -7 -7 -7 -7 -7 -7 -7 -7 -7 -7
-8 -7 -7 -8 -7 -7 -8 -8 -8 -8 -8 -8 -8 -8 -8 -8 -8 -9 -9 -8 -8 -8 -7 -8 -7 -8 -8 -8 -7 -7 -7 -7 -7 -8 -7 -7 -8 -8 -7 -7 -7 -7 -7
-7 -7 -7 -7 -8 -8 -8 -8 -8 -8 -8 -8 -9 -9 -8 -8 -8 -9 -8 -8 -8 -8 -8 -8 -7 -8 -8 -8 -8 -7 -7 -7 -7 -7 -7 -7 -7 -7 -8 -7 -7 -7 -7
-7 -7 -6 -6 -7 -7 -8 -8 -8 -8 -8 -8 -8 -8 -9 -8 -8 -8 -8 -9 -8 -7 -8 -7 -8 -7 -7 -8 -8 -7 -7 -7 -7 -7 -7 -7 -7 -7 -7 -7 -7 -7 -7
-8 -7 -7 -6 -7 -7 -7 -7 -7 -8 -8 -8 -9 -9 -9 -9 -9 -8 -8 -8 -8 -8 -8 -8 -8 -7 -7 -7 -8 -8 -7 -7 -7 -7 -8 -7 -7 -7 -7 -7 -7 -8 -8
-8 -8 -8 -7 -7 -7 -7 -8 -8 -8 -8 -8 -8 -9 -10 -9 -9 -9 -9 -9 -8 -8 -8 -8 -8 -8 -8 -8 -8 -8 -8 -7 -7 -7 -7 -7 -7 -7 -7 -7 -7 -7 -7
-7 -7 -7 -8 -8 -8 -7 -8 -8 -9 -9 -9 -8 -9 -9 -9 -9 -9 -9 -9 -8 -8 -8 -8 -9 -8 -8 -8 -8 -8 -8 -8 -7 -7 -7 -7 -7 -7 -7 -7 -7 -7 -7
-9 -8 -8 -8 -8 -8 -7 -8 -8 -9 -8 -9 -9 -9 -8 -9 -9 -9 -9 -9 -8 -8 -9 -8 -9 -8 -8 -8 -7 -7 -8 -7 -7 -7 -8 -7 -7 -7 -7 -7 -7 -7 -7
-8 -9 -9 -9 -9 -8 -7 -7 -8 -8 -8 -8 -8 -8 -8 -9 -8 -8 -9 -8 -8 -8 -9 -8 -9 -8 -8 -8 -8 -8 -8 -8 -7 -7 -7 -7 -7 -7 -7 -7 -7 -7 -7
-7 -8 -7 -8 -8 -8 -8 -7 -8 -8 -8 -8 -8 -8 -7 -8 -7 -8 -8 -8 -8 -8 -8 -8 -8 -8 -8 -8 -8 -8 -8 -8 -8 -7 -7 -7 -8 -7 -7 -7 -7 -7 -7
-8 -7 -8 -8 -9 -8 -7 -8 -8 -8 -9 -8 -8 -8 -8 -7 -8 -7 -8 -8 -8 -8 -8 -8 -8 -8 -8 -8 -8 -8 -8 -7 -7 -7 -7 -7 -7 -8 -7 -7 -7 -7 -7
-8 -8 -9 -9 -9 -8 -7 -8 -8 -8 -8 -8 -8 -8 -8 -8 -8 -8 -8 -8 -8 -8 -8 -8 -8 -8 -8 -8 -8 -8 -8 -7 -7 -7 -7 -7 -8 -7 -7 -7 -7 -7 -7
-8 -8 -8 -8 -8 -8 -8 -8 -8 -9 -7 -8 -8 -8 -8 -8 -8 -8 -8 -8 -8 -8 -8 -8 -8 -8 -8 -7 -7 -7 -8 -7 -7 -7 -8 -7 -7 -7 -8 -7 -8 -7 -7
Height
5895 5895 5896 5897 5898 5899 5901 5902 5903 5904 5905 5906 5906 5906 5907 5907 5907 5909 5909 5910 5912 5913 5914 5915 5915 5915 5917 5917 5919 5920 5920 5921 5922 5921 5921 5920 5920 5920 5919 5919 5918 5918 5917
5896 5897 5897 5899 5900 5901 5901 5903 5904 5905 5906 5907 5907 5907 5908 5908 5907 5908 5909 5910 5911 5913 5913 5914 5916 5916 5916 5918 5919 5921 5922 5922 5923 5924 5922 5922 5921 5922 5922 5922 5920 5919 5919
5896 5896 5897 5897 5899 5900 5901 5902 5904 5905 5907 5908 5908 5908 5908 5909 5908 5908 5909 5910 5911 5913 5913 5914 5915 5917 5916 5918 5920 5921 5923 5923 5925 5925 5924 5923 5922 5923 5924 5924 5923 5922 5920
5894 5896 5896 5896 5897 5898 5899 5900 5902 5904 5905 5906 5907 5908 5908 5909 5909 5909 5910 5911 5911 5913 5913 5915 5914 5916 5917 5918 5920 5921 5923 5924 5925 5925 5926 5925 5925 5925 5925 5926 5925 5924 5923
5893 5895 5895 5896 5897 5897 5898 5899 5901 5902 5903 5904 5905 5906 5907 5908 5909 5908 5910 5911 5911 5913 5915 5915 5915 5915 5917 5917 5920 5921 5923 5924 5925 5925 5926 5926 5927 5927 5927 5927 5927 5926 5924
5892 5892 5894 5895 5895 5896 5897 5898 5899 5900 5901 5902 5903 5904 5905 5906 5907 5908 5908 5910 5911 5912 5915 5915 5915 5915 5917 5919 5919 5921 5922 5924 5925 5926 5927 5927 5928 5929 5928 5928 5928 5927 5926
5888 5893 5894 5895 5895 5895 5895 5896 5897 5898 5899 5900 5902 5902 5903 5904 5905 5906 5907 5909 5910 5912 5914 5915 5915 5915 5917 5919 5921 5922 5922 5924 5925 5927 5928 5929 5929 5928 5929 5928 5929 5928 5927
5894 5893 5893 5894 5894 5894 5894 5895 5896 5897 5897 5899 5899 5899 5900 5901 5903 5905 5906 5907 5909 5910 5912 5914 5915 5915 5917 5919 5921 5922 5923 5924 5925 5926 5927 5928 5929 5929 5929 5929 5929 5929 5928
5894 5892 5892 5891 5892 5893 5894 5894 5895 5896 5896 5896 5896 5897 5898 5899 5901 5902 5904 5906 5907 5908 5911 5912 5914 5915 5916 5919 5920 5922 5923 5924 5924 5925 5926 5926 5928 5928 5928 5929 5929 5928 5928
5892 5891 5890 5889 5890 5891 5892 5893 5894 5895 5894 5893 5894 5895 5896 5898 5900 5902 5904 5905 5905 5906 5908 5910 5911 5914 5916 5917 5919 5921 5922 5923 5924 5924 5925 5925 5926 5927 5927 5928 5928 5928 5928
5890 5889 5886 5886 5887 5889 5890 5891 5893 5893 5893 5892 5891 5891 5893 5896 5898 5900 5900 5903 5905 5905 5907 5908 5910 5912 5914 5916 5918 5920 5921 5922 5923 5923 5924 5923 5924 5925 5926 5926 5927 5927 5927
5889 5885 5884 5883 5885 5887 5888 5889 5890 5889 5889 5888 5888 5889 5889 5891 5893 5896 5898 5899 5902 5904 5906 5907 5907 5909 5911 5913 5915 5918 5919 5920 5920 5921 5923 5923 5924 5923 5924 5925 5926 5926 5926
5883 5884 5883 5882 5883 5885 5885 5886 5886 5886 5884 5883 5883 5884 5885 5886 5888 5890 5889 5892 5897 5901 5904 5905 5906 5907 5908 5911 5913 5916 5918 5917 5918 5920 5922 5923 5923 5922 5922 5923 5924 5925 5925
5882 5881 5880 5879 5880 5882 5882 5882 5881 5880 5881 5882 5885 5885 5884 5883 5884 5887 5887 5890 5894 5897 5900 5904 5904 5905 5906 5908 5911 5914 5915 5915 5917 5918 5919 5920 5921 5920 5921 5921 5922 5923 5923
5884 5881 5878 5875 5877 5878 5878 5877 5876 5876 5878 5882 5884 5885 5885 5883 5882 5883 5884 5887 5889 5892 5896 5900 5901 5903 5904 5906 5909 5911 5912 5914 5917 5916 5918 5918 5920 5920 5920 5920 5920 5921 5922
5882 5879 5875 5874 5875 5876 5876 5874 5874 5875 5877 5878 5878 5878 5878 5878 5877 5879 5881 5883 5885 5885 5890 5895 5898 5900 5902 5904 5906 5908 5911 5912 5915 5914 5914 5915 5916 5917 5918 5918 5917 5918 5920
5879 5877 5876 5874 5874 5876 5875 5872 5871 5871 5874 5874 5873 5873 5872 5873 5873 5873 5876 5876 5880 5882 5884 5889 5893 5896 5899 5901 5903 5906 5909 5908 5910 5912 5912 5913 5913 5914 5914 5914 5913 5915 5916
5879 5877 5876 5874 5872 5871 5872 5871 5870 5869 5869 5869 5869 5868 5866 5866 5866 5869 5871 5872 5875 5878 5878 5882 5887 5891 5895 5898 5899 5902 5905 5905 5906 5907 5909 5907 5911 5911 5910 5910 5911 5911 5912
5877 5877 5876 5874 5873 5870 5868 5865 5861 5860 5859 5860 5861 5860 5858 5857 5861 5863 5866 5867 5871 5873 5875 5876 5880 5884 5888 5893 5895 5897 5902 5904 5904 5904 5905 5905 5905 5907 5907 5907 5908 5908 5909
5875 5875 5875 5874 5872 5870 5867 5864 5861 5857 5855 5854 5854 5854 5853 5852 5851 5856 5860 5863 5866 5868 5870 5871 5874 5878 5883 5888 5891 5893 5897 5901 5902 5903 5903 5902 5903 5904 5905 5904 5903 5904 5904
5868 5872 5872 5870 5869 5868 5866 5863 5859 5856 5851 5846 5842 5841 5842 5844 5846 5848 5851 5857 5860 5862 5864 5867 5869 5873 5878 5882 5886 5890 5893 5895 5898 5899 5901 5901 5901 5901 5901 5901 5900 5900 5898
5869 5869 5869 5867 5865 5863 5862 5858 5854 5851 5845 5838 5833 5832 5833 5834 5835 5840 5846 5850 5854 5857 5859 5861 5863 5868 5873 5877 5880 5886 5889 5892 5894 5894 5895 5895 5897 5898 5898 5898 5897 5897 5896
5865 5867 5866 5863 5861 5861 5858 5853 5848 5843 5836 5830 5827 5827 5826 5828 5828 5833 5837 5842 5847 5852 5854 5856 5858 5863 5868 5872 5876 5881 5884 5886 5888 5888 5890 5891 5893 5894 5894 5894 5893 5893 5892
5864 5864 5863 5858 5859 5858 5854 5850 5844 5838 5832 5826 5823 5822 5821 5822 5823 5827 5832 5835 5841 5846 5850 5852 5855 5860 5863 5868 5872 5876 5880 5882 5882 5885 5885 5887 5888 5889 5890 5889 5888 5888 5888
5864 5862 5860 5858 5858 5855 5849 5844 5838 5832 5825 5823 5820 5819 5818 5817 5820 5823 5827 5830 5835 5839 5843 5847 5851 5853 5858 5861 5866 5869 5874 5877 5877 5880 5881 5882 5884 5884 5885 5884 5884 5884 5884
5863 5861 5858 5857 5856 5852 5846 5841 5835 5827 5822 5820 5820 5819 5817 5816 5818 5821 5824 5826 5829 5832 5836 5841 5846 5850 5852 5855 5859 5865 5869 5872 5874 5875 5876 5877 5879 5880 5880 5879 5880 5881 5881
Wind_Speed
3 2 1 4 9 9 8 9 10 10 9 7 3 3 3 4 5 8 9 10 11 13 13 12 12 12 10 11 10 10 10 9 9 12 13 14 15 16 19 17 15 14 14
4 4 4 5 7 8 9 7 8 8 8 8 7 4 5 5 4 7 10 11 12 13 14 13 12 12 11 10 10 10 10 9 10 10 12 12 13 13 15 18 18 15 13
8 7 7 7 9 9 11 11 12 12 12 13 12 10 9 8 6 6 9 11 11 13 14 14 14 13 12 10 11 10 10 9 9 10 10 11 12 12 13 14 17 16 14
6 8 8 10 11 11 12 12 13 14 14 13 11 15 16 13 7 5 7 10 11 12 14 15 16 15 13 11 11 10 9 9 7 8 7 9 10 11 11 12 13 13 15
5 7 8 9 11 11 10 10 11 12 13 13 11 10 12 13 11 8 7 8 11 12 13 15 17 17 15 13 11 10 8 8 6 6 5 6 7 9 10 11 13 13 16
3 5 8 9 10 10 9 9 9 10 11 12 12 11 12 14 14 11 8 7 9 12 13 16 18 18 16 14 13 12 9 7 6 4 3 3 5 6 9 10 12 14 16
5 7 8 8 8 9 8 7 7 8 9 11 12 12 11 15 16 14 10 8 9 12 12 14 16 18 17 16 12 11 11 8 7 6 4 2 1 2 4 8 9 11 12
9 8 8 8 8 8 8 7 8 9 7 8 10 11 9 15 17 16 12 11 10 11 15 13 15 17 17 16 13 13 12 9 6 5 4 1 1 2 1 6 6 7 9
4 7 9 10 12 11 10 8 9 10 10 11 10 10 9 11 15 19 17 14 12 12 15 15 15 14 16 16 15 13 12 9 10 7 5 4 3 2 2 3 4 4 3
7 5 10 10 12 14 13 12 10 9 8 11 11 10 8 8 10 15 18 17 14 13 15 17 14 14 14 15 15 13 13 11 11 9 8 6 6 3 3 4 4 3 1
7 4 7 9 12 13 14 14 11 10 9 8 9 6 7 9 8 12 19 18 15 14 16 18 15 16 14 14 14 14 14 12 11 10 9 7 7 7 4 4 6 6 5
9 6 6 8 9 10 12 13 12 11 12 12 10 9 3 13 10 13 18 28 19 16 17 17 19 19 17 14 14 14 14 14 15 15 14 10 7 6 6 4 6 7 7
13 10 8 6 8 8 10 10 13 15 17 16 14 14 13 18 18 14 17 28 30 21 18 18 20 21 22 16 16 15 15 17 18 17 13 11 10 10 9 7 6 6 8
13 13 11 7 7 6 10 10 13 17 17 18 17 15 13 13 13 11 7 20 33 30 20 22 22 23 19 19 17 16 18 19 17 16 14 12 13 12 12 10 8 9 11
12 12 10 9 8 4 6 10 12 16 17 16 17 18 18 14 14 10 10 17 19 30 29 24 25 25 21 19 19 18 19 20 17 18 15 14 16 14 14 13 12 13 13
13 16 15 11 8 3 4 10 13 15 15 15 15 19 21 19 15 16 15 19 23 19 38 29 26 25 22 21 20 19 20 20 18 19 19 16 18 16 17 15 14 14 13
14 16 17 17 10 4 2 4 5 8 12 16 14 15 16 19 17 16 17 17 18 19 32 33 33 30 28 22 20 18 21 20 18 19 18 18 18 18 17 16 16 16 17
14 16 18 19 18 17 13 10 10 11 9 9 13 15 18 19 16 16 16 16 18 19 21 35 37 34 32 27 24 19 22 20 17 16 16 15 17 16 14 14 13 15 17
14 15 15 18 18 18 17 16 18 19 18 16 18 19 21 23 22 19 19 17 18 17 17 26 39 38 34 32 27 23 24 23 20 18 14 18 17 14 13 14 14 15 17
13 15 15 17 16 17 17 17 18 20 21 21 24 25 25 29 28 26 24 22 21 18 18 19 36 40 37 33 32 29 29 27 25 23 19 21 21 18 20 22 15 16 20
19 22 21 25 25 17 17 18 20 24 26 29 30 24 26 28 32 29 26 25 22 20 20 21 33 37 37 31 33 37 30 30 30 28 27 22 20 20 16 14 15 14 23
17 20 21 28 23 20 20 22 23 26 31 28 19 20 21 27 33 30 30 27 26 24 22 21 28 36 37 34 33 37 36 32 30 31 23 21 19 20 20 19 18 18 15
22 24 22 21 19 20 23 21 26 28 32 24 17 16 16 18 23 29 28 29 29 26 22 21 22 35 36 37 34 32 34 30 29 27 21 21 20 20 21 22 24 22 21
22 21 21 19 19 19 22 24 26 28 28 20 18 16 17 14 18 21 24 24 27 29 25 22 24 32 36 36 37 37 32 26 22 19 22 21 20 20 21 22 25 18 14
19 21 15 16 21 26 25 26 29 35 26 16 12 12 13 13 13 19 21 21 22 27 28 25 26 26 29 33 30 35 36 36 28 26 26 19 19 20 21 22 19 18 14
18 18 20 19 22 28 23 25 29 41 21 14 13 12 9 8 9 15 19 21 22 27 30 26 24 24 30 31 31 29 32 29 26 22 19 21 19 19 23 24 22 19 16
Wind_Direction
28 8 136 181 187 199 180 181 184 187 187 189 185 210 232 236 234 217 211 192 195 183 182 180 171 168 159 143 135 130 123 111 96 88 80 79 70 65 60 58 57 54 57
274 277 242 210 223 232 213 210 215 213 207 214 207 220 251 254 250 233 213 205 203 191 181 180 184 177 168 154 145 139 133 122 105 93 84 78 76 70 69 62 61 58 55
286 280 256 258 234 226 228 223 233 234 240 244 238 227 235 245 246 247 211 210 210 200 188 184 181 183 177 167 155 146 139 131 115 97 88 82 76 69 68 70 66 61 58
253 263 260 249 243 238 237 234 234 238 244 247 246 249 244 241 239 229 221 214 214 214 196 191 180 181 183 175 165 154 150 136 127 110 82 73 65 69 70 65 66 60 59
272 249 247 256 246 247 250 248 243 245 243 249 248 237 235 226 221 221 222 225 209 218 212 195 188 180 185 179 173 164 156 152 142 125 104 73 56 63 70 71 65 65 59
272 271 260 252 249 256 252 252 255 252 249 247 245 241 229 219 208 213 209 220 210 204 217 206 198 185 188 182 180 169 167 167 154 150 132 98 61 51 78 72 72 74 64
322 262 258 256 251 252 261 275 277 267 259 255 258 254 240 223 216 212 207 209 215 210 211 215 202 197 192 194 186 183 174 169 166 173 183 172 88 66 84 92 80 75 63
261 269 262 266 262 264 271 282 294 306 290 263 263 260 257 225 219 215 213 211 211 211 208 215 204 199 196 202 192 196 184 178 187 190 191 193 304 291 136 117 104 86 68
315 280 264 259 259 266 271 272 293 303 302 286 275 259 249 226 223 220 216 224 212 205 210 211 208 205 199 204 206 206 197 209 203 200 209 214 231 280 250 175 149 130 80
339 286 265 259 259 260 265 268 273 277 287 272 277 275 251 236 230 222 220 227 215 209 210 209 207 211 209 204 213 211 212 209 211 203 206 215 229 232 262 231 216 215 285
328 296 256 261 257 260 263 269 270 272 271 270 264 277 237 222 233 240 231 231 230 218 215 209 209 211 210 208 214 221 218 215 212 219 216 206 221 232 260 249 242 248 270
7 343 310 263 257 255 264 264 264 255 258 249 253 242 246 210 210 253 246 231 223 231 223 215 209 215 210 213 210 219 224 219 224 218 227 227 223 224 238 238 244 258 269
6 3 347 298 271 269 266 266 259 250 249 240 237 225 231 221 254 286 295 221 224 224 222 221 224 224 205 218 218 219 226 221 203 216 225 231 231 231 228 235 250 265 279
354 341 329 328 324 294 272 267 250 253 247 248 241 239 217 218 235 274 294 217 220 225 219 229 226 224 211 219 219 225 229 228 217 221 216 227 236 228 233 242 251 267 287
359 349 328 317 302 293 263 254 243 246 258 262 266 258 251 238 248 253 255 213 225 224 223 226 231 229 219 223 225 224 231 235 226 232 223 230 232 238 246 259 269 278 289
358 357 355 348 345 339 252 259 257 253 256 258 266 252 243 252 251 258 244 234 241 265 224 229 224 226 223 222 231 231 235 238 230 229 233 229 232 240 242 260 267 271 281
352 358 352 348 350 27 36 294 284 271 253 250 255 258 250 253 250 250 258 251 253 262 220 219 218 226 228 219 226 227 239 233 229 231 236 242 239 244 253 260 263 268 278
338 339 341 343 342 340 346 334 312 302 292 276 270 263 252 249 251 251 255 250 244 245 226 226 216 221 227 225 215 227 242 237 230 233 238 252 244 248 251 258 262 269 274
315 321 328 335 338 335 337 343 335 325 314 301 288 275 265 259 248 246 248 250 251 250 242 235 217 219 222 227 215 219 231 239 234 231 235 240 251 244 255 250 267 276 280
320 327 332 335 332 325 334 343 340 328 316 307 299 279 263 258 253 243 243 244 246 246 244 234 217 218 218 219 217 221 226 232 235 234 232 241 252 254 248 251 251 278 269
344 333 322 330 328 318 320 334 334 332 320 311 302 276 255 246 245 241 239 239 241 241 242 235 224 217 220 224 231 227 226 232 235 234 235 236 245 256 272 269 281 284 307
8 340 319 321 312 314 314 316 325 330 327 316 290 276 265 251 239 240 237 239 236 237 239 245 234 219 219 224 235 229 225 230 236 239 235 243 248 260 275 279 284 282 278
360 348 310 321 327 320 328 328 330 336 335 327 304 278 279 250 238 234 235 239 228 230 236 239 226 218 220 227 233 236 235 225 238 236 236 243 250 260 270 276 282 281 276
345 329 340 341 332 321 332 332 341 342 341 327 313 286 278 259 244 239 227 231 226 230 230 232 229 219 222 233 233 236 240 228 233 237 242 247 255 262 270 282 284 285 286
333 338 335 343 317 329 326 339 346 348 345 333 330 315 293 267 232 217 223 232 237 229 223 229 223 229 229 232 231 237 236 237 242 244 235 241 252 263 272 282 285 282 286
327 342 346 334 318 327 336 344 347 1 352 343 337 325 306 270 231 220 229 239 237 223 219 225 224 229 230 237 228 226 233 236 241 241 245 250 253 260 274 282 276 280 279